This is the latest recevied weather packets stored in our database for station/object ALTO-WX. If no packets are shown the sender has not sent any weather packets the latest 1 day(s).
| Time | Temp. | Humidity | Pressure | Rain* | Wind** | Luminosity | Snow |
|---|---|---|---|---|---|---|---|
| 1778022935 | 11.11° C | 34% | 979.2 hPa | 0 mm | 4.92 m/s, 292° | - | - |
| 1778022061 | 11.11° C | 34% | 979.2 hPa | 0 mm | 4.92 m/s, 291° | - | - |
| 1778021134 | 11.11° C | 34% | 979.2 hPa | 0 mm | 5.36 m/s, 289° | - | - |
| 1778020253 | 11.11° C | 38% | 979.5 hPa | 0 mm | 5.36 m/s, 283° | - | - |
| 1778019334 | 11.67° C | 38% | 979.5 hPa | 0 mm | 5.81 m/s, 280° | - | - |
| 1778018464 | 11.67° C | 38% | 979.5 hPa | 0 mm | 6.26 m/s, 279° | - | - |
| 1778017534 | 12.22° C | 35% | 979.2 hPa | 0 mm | 6.26 m/s, 278° | - | - |
| 1778016654 | 11.67° C | 34% | 978.8 hPa | 0 mm | 6.26 m/s, 275° | - | - |
| 1778015733 | 12.22° C | 34% | 978.8 hPa | 0 mm | 6.71 m/s, 275° | - | - |
| 1778014865 | 12.22° C | 34% | 978.8 hPa | 0 mm | 6.71 m/s, 277° | - | - |
| 1778013934 | 12.22° C | 36% | 979.3 hPa | 0 mm | 6.71 m/s, 275° | - | - |
| 1778013055 | 12.22° C | 35% | 978.4 hPa | 0 mm | 6.71 m/s, 272° | - | - |
| 1778012134 | 12.22° C | 35% | 978.4 hPa | 0 mm | 6.71 m/s, 270° | - | - |
| 1778011262 | 12.22° C | 35% | 978.4 hPa | 0 mm | 7.15 m/s, 266° | - | - |
| 1778010333 | 12.22° C | 35% | 978.2 hPa | 0 mm | 7.15 m/s, 265° | - | - |
| 1778009450 | 12.78° C | 35% | 978.2 hPa | 0 mm | 7.15 m/s, 269° | - | - |
| 1778008536 | 12.78° C | 35% | 978.2 hPa | 0 mm | 7.15 m/s, 266° | - | - |
| 1778007661 | 12.78° C | 35% | 978.2 hPa | 0 mm | 6.71 m/s, 267° | - | - |
| 1778006736 | 12.78° C | 33% | 978.8 hPa | 0 mm | 7.15 m/s, 268° | - | - |
| 1778005858 | 12.78° C | 35% | 978.1 hPa | 0 mm | 7.6 m/s, 270° | - | - |
| 1778004936 | 12.78° C | 35% | 978.2 hPa | 0 mm | 7.15 m/s, 265° | - | - |
| 1778004067 | 12.78° C | 35% | 978.2 hPa | 0 mm | 7.15 m/s, 268° | - | - |
| 1778003135 | 12.78° C | 34% | 977.5 hPa | 0 mm | 7.15 m/s, 272° | - | - |
| 1778002252 | 12.78° C | 32% | 976.8 hPa | 0 mm | 6.71 m/s, 271° | - | - |
| 1778001336 | 12.78° C | 32% | 976.8 hPa | 0 mm | 6.71 m/s, 269° | - | - |
* Rain latest hour (hover to see other rain measurements)
** Current wind speed in m/s (hover to see current wind gust speed)